Regional Weather Roundup
Issued by NWS Albany, NY

Current Version | Previous Version | Text Only | Print | Product List | Glossary On
Versions: 1 2 3 4 5 6 7 8 9 10 11 12 13 14 15 16 17 18 19 20 21 22 23 24 25 26 27 28 29 30 31 32 33 34 35 36 37 38 39 40 41 42 43 44 45 46 47 48 49 50
000 ASUS41 KALY 070310 RWRALY NEW YORK STATE HOURLY WEATHER ROUNDUP NATIONAL WEATHER SERVICE ALBANY NY 1000 PM EST SAT FEB 06 2016 NOTE: "FAIR" INDICATES FEW OR NO CLOUDS BELOW 12,000 FEET WITH NO SIGNIFICANT WEATHER AND/OR NO OBSTRUCTIONS TO VISIBILITY. NYZ032-033-038>043-046>054-057>066-NYZ062>081-070400- EAST CITY SKY/WX TMP DP RH WIND PRES REMARKS ALBANY CLOUDY 36 18 48 S9 30.19F WCI 29 GLENS FALLS CLOUDY 32 21 64 SW5 30.17F WCI 27 POUGHKEEPSIE CLEAR 30 19 63 SE3 30.25S NEWBURGH CLEAR 32 21 64 W5 30.25R WCI 27 MONTGOMERY CLEAR 27 21 78 SE3 30.23S WHITE PLAINS CLEAR 34 19 54 SW3 30.26S ISLIP PTCLDY 32 25 75 SW6 30.28S WCI 26 NEW YORK CITY PTCLDY 39 22 50 S8 30.29S WCI 33 CENTRAL PARK CLEAR 38 20 48 VRB7G18 30.30S WCI 33 $$ NYZ005>009-017-018-044>046-055-056-070400- CENTRAL CITY SKY/WX TMP DP RH WIND PRES REMARKS FULTON CLOUDY 34 22 61 SW3 30.17S SYRACUSE CLOUDY 28 22 78 CALM 30.17S ROME CLOUDY 28 22 78 E3 30.18F ELMIRA CLEAR 22 19 89 CALM 30.18R BINGHAMTON CLEAR 30 18 60 SW7 30.14S WCI 23 MONTICELLO CLEAR 28 19 69 SW3 30.20S $$ NYZ026>034-041>043-070400- NORTH CITY SKY/WX TMP DP RH WIND PRES REMARKS WATERTOWN CLOUDY 35 25 66 SW13G22 30.14S WCI 26 FORT DRUM NOT AVBL MASSENA CLOUDY 34 25 69 SW14G21 30.09F WCI 25 SARANAC LAKE CLOUDY 28 21 75 SW10 30.03S WCI 19 PLATTSBURGH CLOUDY 37 23 56 SW7 30.10F WCI 32 $$ NYZ001>004-010>016-019>021-070400- WEST CITY SKY/WX TMP DP RH WIND PRES REMARKS NIAGARA FALLS CLOUDY 34 23 64 SW12 30.15F WCI 25 BUFFALO CLOUDY 33 24 69 SW10 30.15F WCI 25 DUNKIRK MOCLDY 29 22 75 SW7 30.17F WCI 22 JAMESTOWN PTCLDY 28 16 59 S5 30.13S WCI 23 WELLSVILLE CLEAR 31 16 54 SW7 30.13S WCI 24 ROCHESTER CLOUDY 32 25 75 W7 30.16F WCI 26 PENN YAN CLOUDY 32 23 69 SW6 30.17R WCI 26 $$ KEY WCI = WIND CHILL INDEX VSB = VISIBILITY HX = HEAT INDEX $$

USA.gov is the U.S. government's official web portal to all federal, state and local government web resources and services.